Location: Bílinka
(49.3579°N, 14.3767°E)
Time: 22:50:22
(UTC+00:00)

PSLV R/B - Pass Details

Date: 25 April 2024
Orbit: 467 x 522 km, 97.7° (Epoch: 18 May)

Event Time Altitude Azimuth Distance (km) Brightness Sun altitude
Rises 19:45:29 0° 198° (SSW) 2,624 7.1 -13.9°
Reaches altitude 10° 19:47:54 10° 214° (SW) 1,752 6.3 -14.2°
Maximum altitude 19:50:55 22° 267° (W) 1,176 6.0 -14.5°
Drops below altitude 10° 19:53:58 10° 319° (NW) 1,781 7.8 -14.9°
Sets 19:56:28 0° 335° (NNW) 2,681 8.7 -15.2°
